Hourly Data Report for February 02, 2019

All times are specified in Local Standard Time (LST). Add 1 hour to adjust for Daylight Saving Time where and when it is observed.

YELLOWKNIFE A
NORTHWEST TERRITORIES
Current Station Operator: NAVCAN

62°27'47.000" N
114°26'25.000" W
205.70 m
2204101
71936
YZF

Download Data

Hourly Data (February 2019)
Hourly Data Report for February 2, 2019
TIME Temp Definition
°C
Dew Point Definition
°C
Rel Hum Definition
%
Wind Dir Definition
10's deg

Wind Spd Definition
km/h
Visibility Definition
km
Stn Press Definition
kPa
Hmdx Definition


Wind Chill Definition


Weather Definition


00:00 -38.5 -42.3 68 1 4 24.1 100.55   -44 LegendNANA
01:00 -39.5 -43.4 68 2 9 24.1 100.54   -50 LegendNANA
02:00 -39.6 -43.5 67 3 8 24.1 100.56   -49 Clear
03:00 -39.6 -43.5 67 3 6 24.1 100.59   -48 LegendNANA
04:00 -40.2 -44.1 67 3 7 24.1 100.61   -49 LegendNANA
05:00 -40.5 -44.3 67 3 8 24.1 100.62   -50 Clear
06:00 -41.4 -45.4 66 36 8 24.1 100.62   -51 LegendNANA
07:00 -42.0 -46.0 66 1 9 24.1 100.62   -53 LegendNANA
08:00 -41.5 -45.6 66 35 8 24.1 100.62   -51 Clear
09:00 -42.6 -46.7 66 34 5 24.1 100.63   -50 LegendNANA
10:00 -41.4 -45.4 66 36 5 24.1 100.67   -49 LegendNANA
11:00 -39.3 -43.4 66 36 2 24.1 100.69   -42 Mainly Clear
12:00 -37.7 -42.0 65 36 1 24.1 100.69   -39 LegendNANA
13:00 -35.6 -39.7 67 34 4 24.1 100.66   -41 LegendNANA
14:00 -33.9 -38.1 66 36 8 24.1 100.65   -43 Mainly Clear
15:00 -32.6 -37.0 66 32 7 24.1 100.67   -40 LegendNANA
16:00 -33.7 -37.8 68 27 6 24.1 100.70   -41 LegendNANA
17:00 -35.2 -39.0 70 29 10 24.1 100.72   -45 Mainly Clear
18:00 -35.6 -39.2 70 29 9 24.1 100.73   -45 LegendNANA
19:00 -36.3 -39.9 71 31 11 24.1 100.71   -47 LegendNANA
20:00 -36.5 -40.3 69 33 14 24.1 100.72   -49 Clear
21:00 -36.9 -40.6 69 33 9 24.1 100.72   -47 LegendNANA
22:00 -37.0 -40.7 69 33 14 24.1 100.71   -50 LegendNANA
23:00 -38.3 -41.9 70 32 8 24.1 100.70   -48 Clear

Notes on Data Quality.

Legend

  • E = Estimated
  • M = Missing
  • NA = Not Available
Date modified: